Date String (YYYY-MM-DD hh:mm:ss) UTC,Instrument flags,absolute air pressure of the measurement (hPa),sample flow rate (lpm),inlet stack bypass flow (lpm),air temperature of the measurement (°C),ambient temperature measured by the external sensor (°C),aerosol sample conditioner tube jacket temperature (°C),OPC LED temperature (°C),internal box temperature (°C),relative humidity of the measurement (%),span deviation,mass concentration of particles derived from Lorenz-Mie calculation of OPC scattering (μg/m³),mass concentration of particles derived from Lorenz-Mie calculation of OPC scattering (μg/m³),mass concentration of particles derived from Lorenz-Mie calculation of OPC scattering (μg/m³)
DateTimeUTC,F1_M11,P_M11,Q1_M11,Q2_M11,T1_M11,T2_M11,T3_M11,T4_M11,T5_M11,U1_M11,ZSPAN_M11,X2_M11,X0_M11,X1_M11
2024-02-08 14:00:00,SystemResetWarning,0814.3,4.99,000.00,018.4,017.6,000.0,026.9,020.0,12.7,0000.0,0000.19,0001.35,0000.08
2024-02-08 14:01:00,SystemResetWarning,0814.2,5.00,000.00,018.4,017.6,000.0,026.9,020.0,12.4,0000.0,0000.18,0001.32,0000.08
2024-02-08 14:02:00,SystemResetWarning,0814.3,5.00,000.00,018.4,017.5,000.0,026.9,020.0,11.9,0000.0,0000.17,0001.27,0000.09
2024-02-08 14:03:00,SystemResetWarning,0814.3,5.00,000.00,018.4,017.5,000.0,026.9,020.0,12.0,0000.0,0000.20,0001.33,0000.09
2024-02-08 14:04:00,SystemResetWarning,0814.3,5.00,000.00,018.4,017.5,000.0,026.9,020.0,12.2,0000.0,0000.20,0001.13,0000.09
2024-02-08 14:05:00,SystemResetWarning,0814.3,5.00,000.00,018.4,017.5,000.0,026.9,020.0,12.8,0000.0,0000.20,0001.13,0000.09
2024-02-08 14:06:00,SystemResetWarning,0814.2,5.00,000.00,018.4,017.5,000.0,026.9,020.0,12.7,0000.0,0000.21,0000.83,0000.09
2024-02-08 14:07:00,SystemResetWarning,0814.2,5.00,000.00,018.4,017.4,000.0,026.9,020.0,11.7,0000.0,0000.23,0000.55,0000.09
2024-02-08 14:08:00,SystemResetWarning,0814.3,5.01,000.00,018.4,017.4,000.0,026.9,020.0,12.1,0000.0,0000.26,0000.59,0000.10
2024-02-08 14:09:00,SystemResetWarning,0814.4,5.01,000.00,018.4,017.4,000.0,026.9,020.0,12.9,0000.0,0000.26,0000.55,0000.10
2024-02-08 14:10:00,SystemResetWarning,0814.4,4.99,000.00,018.4,017.4,000.0,026.9,020.0,12.9,0000.0,0000.26,0000.56,0000.10
2024-02-08 14:11:00,SystemResetWarning,0814.5,5.00,000.00,018.4,017.4,000.0,026.9,020.0,12.6,0000.0,0000.26,0000.56,0000.10
2024-02-08 14:12:00,SystemResetWarning,0814.4,4.99,000.00,018.4,017.4,000.0,026.9,020.0,12.9,0000.0,0000.26,0000.55,0000.11
2024-02-08 14:13:00,SystemResetWarning,0814.3,4.99,000.00,018.4,017.4,000.0,026.9,020.0,12.4,0000.0,0000.28,0000.59,0000.11
2024-02-08 14:14:00,SystemResetWarning,0814.5,5.01,000.00,018.4,017.4,000.0,026.9,020.0,12.4,0000.0,0000.26,0000.48,0000.11
2024-02-08 14:15:00,SystemResetWarning,0814.5,5.01,000.00,018.4,017.4,000.0,026.9,020.0,12.4,0000.0,0000.25,0000.45,0000.11
2024-02-08 14:16:00,SystemResetWarning,0814.5,5.00,000.00,018.4,017.4,000.0,026.9,020.0,13.0,0000.0,0000.24,0000.43,0000.10
2024-02-08 14:17:00,SystemResetWarning,0814.5,5.00,000.00,018.4,017.4,000.0,026.9,020.0,12.7,0000.0,0000.22,0000.41,0000.11
2024-02-08 14:18:00,SystemResetWarning,0814.6,4.99,000.00,018.3,017.3,000.0,026.9,020.0,12.6,0000.0,0000.20,0000.45,0000.11
2024-02-08 14:19:00,SystemResetWarning,0814.5,5.00,000.00,018.3,017.3,000.0,026.9,020.0,12.6,0000.0,0000.17,0000.40,0000.11
2024-02-08 14:20:00,SystemResetWarning,0814.5,5.01,000.00,018.3,017.3,000.0,026.9,020.0,12.1,0000.0,0000.17,0000.38,0000.11
2024-02-08 14:21:00,SystemResetWarning,0814.6,5.01,000.00,018.4,017.9,000.0,027.0,020.3,11.8,0000.0,0000.17,0000.37,0000.11
2024-02-08 14:22:00,SystemResetWarning,0814.7,4.98,000.00,018.6,018.6,000.0,027.0,020.8,12.1,0000.0,0000.19,0000.41,0000.11
2024-02-08 14:23:00,SystemResetWarning,0814.8,5.00,000.00,018.7,018.7,000.0,027.0,020.7,12.3,0000.0,0000.19,0000.41,0000.11
2024-02-08 14:24:00,SystemResetWarning,0814.8,5.00,000.00,018.7,018.6,000.0,026.9,020.5,12.2,0000.0,0000.17,0000.38,0000.11
2024-02-08 14:25:00,SystemResetWarning,0814.7,5.01,000.00,018.7,018.5,000.0,026.9,020.4,12.4,0000.0,0000.19,0000.50,0000.11
2024-02-08 14:26:00,SystemResetWarning,0814.7,5.00,000.00,018.7,018.3,000.0,026.9,020.3,12.1,0000.0,0000.20,0000.51,0000.11
2024-02-08 14:27:00,SystemResetWarning,0814.9,5.00,000.00,018.7,018.2,000.0,026.9,020.3,11.5,0000.0,0000.21,0000.55,0000.11
2024-02-08 14:28:00,SystemResetWarning,0814.9,4.99,000.00,018.6,018.0,000.0,026.9,020.2,11.7,0000.0,0000.20,0000.52,0000.11
2024-02-08 14:29:00,SystemResetWarning,0814.9,5.01,000.00,018.6,017.9,000.0,026.9,020.1,11.1,0000.0,0000.22,0000.51,0000.11
2024-02-08 14:30:00,SystemResetWarning,0814.9,5.01,000.00,018.6,017.8,000.0,026.8,020.1,11.3,0000.0,0000.24,0000.53,0000.11
2024-02-08 14:31:00,SystemResetWarning,0815.0,5.01,000.00,018.5,017.7,000.0,026.9,020.0,11.0,0000.0,0000.23,0000.52,0000.11
2024-02-08 14:32:00,SystemResetWarning,0814.9,5.00,000.00,018.5,017.6,000.0,026.9,020.0,11.2,0000.0,0000.23,0000.52,0000.11
2024-02-08 14:33:00,SystemResetWarning,0814.9,5.00,000.00,018.5,017.6,000.0,026.9,020.0,11.5,0000.0,0000.23,0000.51,0000.11
2024-02-08 14:34:00,SystemResetWarning,0815.0,4.99,000.00,018.4,017.5,000.0,026.9,020.0,11.7,0000.0,0000.24,0000.53,0000.11
2024-02-08 14:35:00,SystemResetWarning,0815.1,5.00,000.00,018.4,017.5,000.0,026.9,020.0,11.6,0000.0,0000.25,0000.56,0000.12
2024-02-08 14:36:00,SystemResetWarning,0815.2,5.00,000.00,018.4,017.5,000.0,026.9,020.0,12.1,0000.0,0000.24,0000.47,0000.12
2024-02-08 14:37:00,SystemResetWarning,0815.4,5.02,000.00,018.4,017.5,000.0,026.9,020.0,11.9,0000.0,0000.24,0000.49,0000.12
2024-02-08 14:38:00,SystemResetWarning,0815.2,5.00,000.00,018.4,017.5,000.0,026.9,020.0,12.3,0000.0,0000.25,0000.49,0000.12
2024-02-08 14:39:00,SystemResetWarning,0815.2,4.99,000.00,018.4,017.5,000.0,026.9,020.0,11.9,0000.0,0000.26,0000.55,0000.13
2024-02-08 14:40:00,SystemResetWarning,0815.4,4.99,000.00,018.4,017.4,000.0,026.9,020.0,12.1,0000.0,0000.26,0000.60,0000.12
2024-02-08 14:41:00,SystemResetWarning,0815.6,5.01,000.00,018.4,017.4,000.0,026.9,020.0,12.1,0000.0,0000.25,0000.61,0000.12
2024-02-08 14:42:00,SystemResetWarning,0815.5,5.01,000.00,018.4,017.4,000.0,026.9,020.0,11.6,0000.0,0000.25,0000.65,0000.12
2024-02-08 14:43:00,SystemResetWarning,0815.5,5.00,000.00,018.4,017.4,000.0,026.9,020.0,11.4,0000.0,0000.25,0000.65,0000.12
2024-02-08 14:44:00,SystemResetWarning,0815.3,4.99,000.00,018.4,017.4,000.0,026.9,020.0,11.5,0000.0,0000.24,0000.85,0000.11
2024-02-08 14:45:00,SystemResetWarning,0815.2,5.00,000.00,018.4,017.4,000.0,026.9,020.0,11.1,0000.0,0000.27,0001.06,0000.11
2024-02-08 14:46:00,SystemResetWarning,0815.4,4.99,000.00,018.3,017.4,000.0,026.9,020.0,11.0,0000.0,0000.26,0001.04,0000.11
2024-02-08 14:47:00,SystemResetWarning,0815.3,5.01,000.00,018.4,017.4,000.0,026.9,020.0,11.3,0000.0,0000.27,0001.05,0000.12
2024-02-08 14:48:00,SystemResetWarning,0815.5,5.01,000.00,018.4,017.4,000.0,026.9,020.0,11.4,0000.0,0000.27,0001.01,0000.12
2024-02-08 14:49:00,SystemResetWarning,0815.5,5.00,000.00,018.3,017.4,000.0,026.9,020.0,11.5,0000.0,0000.27,0001.00,0000.12
2024-02-08 14:50:00,SystemResetWarning,0815.5,4.99,000.00,018.3,017.4,000.0,026.9,020.0,11.9,0000.0,0000.26,0000.97,0000.12
2024-02-08 14:51:00,SystemResetWarning,0815.6,4.99,000.00,018.3,017.4,000.0,026.9,020.0,12.2,0000.0,0000.25,0000.86,0000.12
2024-02-08 14:52:00,SystemResetWarning,0815.6,4.99,000.00,018.3,017.4,000.0,026.9,020.0,11.9,0000.0,0000.23,0000.79,0000.13
2024-02-08 14:53:00,SystemResetWarning,0815.5,5.00,000.00,018.3,017.4,000.0,026.9,020.0,12.1,0000.0,0000.23,0000.75,0000.13
2024-02-08 14:54:00,SystemResetWarning,0815.3,5.01,000.00,018.3,017.4,000.0,026.9,020.0,12.1,0000.0,0000.24,0000.77,0000.13
2024-02-08 14:55:00,SystemResetWarning,0815.6,5.01,000.00,018.3,017.4,000.0,026.9,020.0,12.5,0000.0,0000.24,0000.57,0000.14
2024-02-08 14:56:00,SystemResetWarning,0815.6,5.00,000.00,018.3,017.4,000.0,026.9,020.0,12.8,0000.0,0000.21,0000.35,0000.14
2024-02-08 14:57:00,SystemResetWarning,0815.6,4.99,000.00,018.3,017.4,000.0,026.9,020.0,12.6,0000.0,0000.21,0000.36,0000.14
2024-02-08 14:58:00,SystemResetWarning,0815.5,5.00,000.00,018.4,017.5,000.0,026.9,020.1,12.8,0000.0,0000.24,0000.45,0000.14
2024-02-08 14:59:00,SystemResetWarning,0815.6,5.02,000.00,018.5,018.1,000.0,027.0,020.4,12.4,0000.0,0000.25,0000.52,0000.15
